Location: Newark
(48.4472°N, 1.4892°E)
Time: 17:24:41
(UTC+00:00)

deb Explorer IX - Visible Passes

Search period start: 19 November 2019 00:00
Search period end: 29 November 2019 00:00
Orbit: 546 x 1105 km, 38.8° (Epoch: 17 November)

Date Brightness Start Highest point End Pass type
(mag) Time Alt. Az. Time Alt. Az. Time Alt. Az.
19 Nov ? 04:06:44 22° SSE 04:06:44 22° SSE 04:09:06 10° SE visible
19 Nov ? 05:48:33 10° WSW 05:50:51 13° SSW 05:53:01 10° S visible
20 Nov ? 03:46:01 16° SE 03:46:01 16° SE 03:47:18 10° SE visible
20 Nov ? 05:27:24 12° SW 05:28:54 14° SSW 05:31:15 10° S visible
21 Nov ? 03:25:20 11° SE 03:25:20 11° SE 03:25:28 10° SE visible
21 Nov ? 05:06:43 14° SSW 05:06:57 14° SSW 05:09:28 10° S visible
22 Nov ? 04:46:04 14° SSW 04:46:04 14° SSW 04:47:42 10° S visible
23 Nov ? 04:25:27 11° S 04:25:27 11° S 04:25:54 10° S visible
